FENGYUN 1C DEB, 30596

Orbit data source: Space-Track

FENGYUN 1C DEB, 30596 is space debris in SSO originally from a launch on Mon, 10 May 1999 UTC launched from the Taiyaun Space Center, China (TSC). Fengyun 1C debris stems from the Chinese weather satellite Fengyun-1C, which was intentionally destroyed by a Chinese anti-satellite missile in 2007. This event dramatically increased the amount of space debris, with thousands of trackable fragments posing hazards to satellites and human spaceflight. The Fengyun 1C debris cloud has become a focal point in discussions about space sustainability and the need for international regulations to prevent the creation of new debris.

Loading next visibility...
Identifier
30596, 1999-025AMB
Orbit
SSO
Country
Flag of CNCN / PRC
Related business
Manufacturer
Unknown
Mission
Spacecraft
Bus & Motor
Unknown
Mass
Unknown
Launch date (UTC)
1999-05-10 (27 years ago)
Launch vehicle
Unknown
Launch site
Taiyaun Space Center, China (TSC)
Object type
Payload
Rocket body
Debris
Shape & HBR
Unknown shape, 0.1 m
Radar Cross Section
Small (<0.1 m²)

Expand to show TLE details & history
Last TLE update: 16 hours ago

TLE from 16 hours ago
0 FENGYUN 1C DEB
1 30596U 99025AMB 26236.47441150  .00000362  00000-0  10429-3 0  9993
2 30596  98.4245 233.0583 0245546 249.9862 264.8885 14.34914261 22120
Epoch: 2026-08-24T11:23Z
TLE epoch observation values (Epoch: 2026-08-24T11:23:09.153Z)
Latitude
27.63339°
Longitude
-86.06208°
Altitude
798.677 km
Speed
7.446 km/s
True Right ascension
03h 49m 55s
True Declination
27° 29' 35"
Sunlit
Object was in daylight at epoch
Visualization orbit readout
Latitude
Unknown
Longitude
Unknown
Altitude
Unknown
Speed
Unknown
Apparent Right ascension
Unknown
Apparent Declination
Unknown
Sunlit
N/A
Visualization observer readout
Local Sidereal Time
18:42:43
Azimuth
Unknown
Elevation
Unknown
Doppler factor
Unknown
Orbital elements
Apogee altitude
948.054 km
Perigee altitude
596.893 km
Semi-major axis
7,150.611 km
Eccentricity
0.02455
Inclination
98.4245°
RAAN
233.0583°
Arg. of periapsis
249.9862°
True anomaly
262.09469°
Mean anomaly
264.8885°
Eccentric anomaly
263.49069°
Mean motion
3.58945 °/min
Orbital period
100.29 mins
BSTAR
0.00010429
Loading maneuver chart data...
Computing Atmospheric mass density...
Loading historical data...
Loading historical data...
Loading historical data...
Loading historical data...
Loading historical data...
Loading historical data...
Loading historical data...

Documentation

Showing up to 5 results
|